Weather History for Whiteman AFB, MO

Change the Weather History Date:

Monday, February 18, 2013

  Actual Average Record
Temperature  
Mean Temperature 42 °F -  
Max Temperature 56 °F 44 °F 66 °F (2002)
Min Temperature 28 °F 28 °F 12 °F (2006)
Degree Days  
Heating Degree Days 23    
Moisture  
Dew Point 39 °F    
Average Humidity 80    
Maximum Humidity 100    
Minimum Humidity 52    
Precipitation  
Precipitation 0.22 in - - ()
Sea Level Pressure  
Sea Level Pressure 29.68 in    
Wind  
Wind Speed 18 mph (West)    
Max Wind Speed 31 mph    
Max Gust Speed 38 mph    
Visibility 9 miles    
Events Rain    
Averages and records for this station are not official NWS values.
T = Trace of Precipitation, MM = Missing Value Source: NWS Daily Summary

Daily Weather History Graph

Daily Weather History Graph

Search for Another Location

Airport:

Trip Planner

Search our weather history database for the weather conditions in past years. The results will help you decide how hot, cold, wet, or windy it might be!

Date:

Astronomy

Feb. 18, 2013 Rise Set
Actual Time 7:01 AM CST 5:55 PM CST
Civil Twilight 6:34 AM CST 6:22 PM CST
Nautical Twilight 6:03 AM CST 6:53 PM CST
Astronomical Twilight 5:32 AM CST 7:24 PM CST
Moon 11:43 AM CST (2/18) 1:39 AM CST (2/18)
Length of Visible Light 11h 48m
Length of Day
10h 54m
First Quarter, 58% of the Moon is Illuminated
Feb 18
First Quarter
Feb 25
Full
Mar 4
Last Quarter
Mar 11
New
Mar 19
First Quarter

Hourly Weather History & Observations

Time (CST) Temp. Windchill Dew Point Humidity Pressure Visibility Wind Dir Wind Speed Gust Speed Precip Events Conditions
12:55 AM 48.7 °F - 31.8 °F 52% 29.73 in 10.0 mi South 17.3 mph - N/A   Clear
1:55 AM 48.9 °F - 32.2 °F 52% 29.71 in 10.0 mi South 16.1 mph - N/A   Clear
2:55 AM 47.3 °F - 32.5 °F 57% 29.68 in 10.0 mi South 13.8 mph - N/A   Clear
3:55 AM 46.9 °F - 32.9 °F 58% 29.65 in 10.0 mi South 15.0 mph - N/A   Clear
4:55 AM 47.5 °F - 33.1 °F 57% 29.62 in 10.0 mi South 17.3 mph - N/A   Clear
5:55 AM 49.1 °F - 34.7 °F 58% 29.61 in 10.0 mi South 18.4 mph 25.3 mph N/A   Clear
6:55 AM 50.0 °F - 37.4 °F 62% 29.61 in 10.0 mi SSW 18.4 mph - N/A   Clear
7:55 AM 52.9 °F - 42.3 °F 67% 29.61 in 10.0 mi South 23.0 mph 29.9 mph N/A   Overcast
8:55 AM 54.1 °F - 45.0 °F 71% 29.61 in 10.0 mi SSW 23.0 mph 27.6 mph N/A   Overcast
9:55 AM 55.4 °F - 46.2 °F 71% 29.60 in 10.0 mi SSW 20.7 mph 27.6 mph N/A   Overcast
10:23 AM 55.4 °F - 48.2 °F 77% 29.60 in 10.0 mi SSW 18.4 mph - N/A   Light Drizzle
10:34 AM 55.4 °F - 48.2 °F 77% 29.59 in 10.0 mi SSW 19.6 mph - N/A   Overcast
10:41 AM 55.4 °F - 48.2 °F 77% 29.59 in 10.0 mi SSW 18.4 mph - N/A   Overcast
10:55 AM 55.4 °F - 48.0 °F 76% 29.58 in 10.0 mi SSW 20.7 mph 31.1 mph 0.00 in   Overcast
11:55 AM 56.3 °F - 48.6 °F 75% 29.57 in 10.0 mi SSW 17.3 mph - N/A   Overcast
12:00 PM 55.4 °F - 50.0 °F 82% 29.57 in 10.0 mi SSW 16.1 mph - N/A   Light Drizzle
12:55 PM 53.6 °F - 53.6 °F 100% 29.54 in 10.0 mi SSW 9.2 mph - 0.02 in   Light Drizzle
1:05 PM 53.6 °F - 53.6 °F 100% 29.53 in 10.0 mi South 9.2 mph - N/A   Mostly Cloudy
1:07 PM 53.6 °F - 53.6 °F 100% 29.52 in 10.0 mi SSW 10.4 mph - N/A   Light Drizzle
1:42 PM 51.8 °F - 51.8 °F 100% 29.53 in 8.0 mi NW 31.1 mph 38.0 mph N/A Rain Light Rain
1:46 PM 48.2 °F - 48.2 °F 100% 29.54 in 4.0 mi WNW 28.8 mph 38.0 mph N/A Rain Heavy Rain
1:48 PM 48.2 °F - 48.2 °F 100% 29.55 in 3.0 mi NW 28.8 mph 38.0 mph N/A Rain Heavy Rain
1:55 PM 46.2 °F 37.1 °F 46.2 °F 100% 29.55 in 2.5 mi NW 28.8 mph 38.0 mph 0.15 in Rain Heavy Rain
1:58 PM 42.8 °F 32.7 °F 42.8 °F 100% 29.57 in 2.5 mi NW 27.6 mph 38.0 mph N/A Rain Heavy Rain
2:00 PM 42.8 °F 32.7 °F 42.8 °F 100% 29.57 in 3.0 mi NW 27.6 mph 38.0 mph N/A Rain Heavy Rain
2:10 PM 41.0 °F 31.6 °F 41.0 °F 100% 29.58 in 4.0 mi NNW 20.7 mph 33.4 mph N/A Rain Rain
2:18 PM 41.0 °F 31.4 °F 41.0 °F 100% 29.59 in 8.0 mi NNW 21.9 mph 29.9 mph N/A Rain Light Rain
2:36 PM 41.0 °F 31.9 °F 41.0 °F 100% 29.61 in 10.0 mi NNW 19.6 mph 32.2 mph N/A   Overcast
2:55 PM 40.3 °F 31.3 °F 40.1 °F 99% 29.63 in 10.0 mi NNW 18.4 mph 31.1 mph 0.05 in   Overcast
3:55 PM 40.6 °F 32.7 °F 39.0 °F 94% 29.69 in 10.0 mi NW 15.0 mph 32.2 mph N/A   Overcast
4:55 PM 38.8 °F 28.5 °F 34.0 °F 83% 29.76 in 10.0 mi NNW 21.9 mph 36.8 mph N/A   Overcast
5:55 PM 35.8 °F 26.1 °F 30.0 °F 80% 29.85 in 10.0 mi NNW 16.1 mph 31.1 mph N/A   Overcast
6:55 PM 34.3 °F 24.2 °F 27.5 °F 76% 29.90 in 10.0 mi NW 16.1 mph 24.2 mph N/A   Overcast
7:43 PM 33.8 °F 21.9 °F 24.8 °F 70% 29.94 in 10.0 mi NW 21.9 mph 31.1 mph N/A   Overcast
7:55 PM 33.3 °F 22.5 °F 24.8 °F 71% 29.94 in 10.0 mi NW 17.3 mph 31.1 mph N/A   Overcast
8:55 PM 30.9 °F 18.7 °F 21.9 °F 69% 29.99 in 10.0 mi NW 19.6 mph 27.6 mph N/A   Clear
9:55 PM 29.3 °F 19.6 °F 20.5 °F 70% 30.02 in 10.0 mi NW 11.5 mph - N/A   Clear
10:55 PM 28.6 °F 18.7 °F 19.8 °F 70% 30.04 in 10.0 mi WNW 11.5 mph - N/A   Clear
11:55 PM 28.2 °F 17.2 °F 18.9 °F 68% 30.06 in 10.0 mi WNW 13.8 mph - N/A   Clear